GFSSE_850_rhum_132.txt.gz
RH
16 15 15 14 14 14 19 28 37 45 51 57 60 60 58 56 50 48 52 60 65 67 70 72 73 78 78 75 70 64 77 82 78 74 72 69 63 66 70 70 73 76 77
17 16 15 14 12 11 14 23 34 46 54 59 62 62 60 58 53 50 55 62 67 72 72 73 72 69 75 71 74 79 80 78 74 68 66 65 66 72 74 71 72 76 80
17 14 12 13 13 13 16 22 32 42 53 60 62 62 62 61 56 53 58 55 59 64 67 72 72 73 73 64 64 60 71 75 74 68 66 70 79 79 79 74 78 78 73
11 10 11 14 15 14 16 23 31 42 52 58 59 61 63 64 59 52 53 56 59 60 63 68 64 62 61 65 62 69 75 75 75 73 68 73 78 82 80 74 69 69 73
10 9 11 12 13 13 16 24 30 40 48 51 55 59 63 65 62 56 52 58 64 66 68 60 59 64 66 57 69 70 67 78 76 68 68 73 76 70 66 62 67 70 73
10 10 10 11 12 13 16 25 30 38 42 46 50 59 67 68 66 58 54 46 50 50 69 59 56 61 64 55 70 74 72 82 77 71 76 74 60 55 64 66 70 76 83
11 10 11 12 12 12 16 24 32 36 38 40 48 60 66 68 68 62 48 45 47 58 54 63 54 63 58 52 72 78 73 88 76 74 52 58 56 60 70 77 78 81 87
12 11 12 13 13 13 14 19 29 36 38 41 49 59 64 66 69 66 52 49 46 45 49 55 62 62 50 56 72 76 88 86 83 82 72 62 79 71 75 80 79 84 83
11 12 14 16 17 15 14 15 20 28 38 42 46 53 60 63 68 69 63 55 54 46 48 52 65 54 54 66 68 66 86 85 87 74 75 74 72 68 59 67 68 79 84
16 13 14 16 18 18 17 16 18 24 30 39 43 46 54 63 68 74 70 59 60 49 49 62 64 50 46 63 60 77 82 76 71 73 71 81 72 73 58 60 63 72 81
25 23 18 17 17 18 19 19 19 22 29 35 40 46 46 57 64 71 75 73 67 49 51 58 56 50 51 62 59 71 80 79 85 81 78 81 80 88 69 61 64 69 77
30 31 32 27 20 18 19 21 21 21 22 28 33 40 41 48 56 65 74 77 72 57 54 54 51 50 52 49 53 56 77 81 79 82 85 76 77 67 57 64 64 60 66
33 32 34 33 30 20 19 20 22 23 23 25 28 30 38 47 58 63 78 79 81 67 58 54 52 53 56 56 65 73 71 75 71 85 87 76 78 82 59 54 62 55 61
36 35 35 35 34 31 21 21 22 23 24 25 26 29 32 39 52 54 67 73 81 78 63 61 60 59 57 53 65 67 69 73 72 84 86 76 76 88 64 40 40 54 54
33 30 30 32 34 34 28 24 24 24 24 25 28 31 31 36 43 51 59 66 77 83 73 67 67 65 60 61 68 52 67 66 71 82 83 73 74 70 53 40 55 72 44
30 33 33 34 36 34 32 27 28 30 28 30 32 33 36 40 43 51 60 69 75 79 81 78 73 70 68 68 69 68 72 67 75 79 78 69 72 67 56 40 86 77 49
26 29 33 32 34 38 40 40 42 39 38 38 39 41 44 46 48 56 60 65 72 78 82 83 84 77 78 80 73 77 80 77 82 82 74 69 70 67 56 30 73 97 65
16 17 18 29 34 38 42 42 45 54 56 50 51 48 52 56 59 66 75 72 74 84 83 88 92 82 81 81 86 88 86 85 87 83 78 71 70 64 46 51 90 96 81
15 16 16 18 27 33 41 44 60 58 64 64 52 52 67 75 75 75 82 87 87 91 84 88 93 91 82 86 87 91 83 86 90 85 75 71 69 61 38 77 98 97 96
16 16 18 19 28 39 47 54 56 52 52 68 60 59 66 95 92 92 86 87 89 96 92 91 97 92 85 79 87 86 82 85 91 79 74 72 70 67 45 62 94 91 79
17 18 19 27 42 50 55 56 57 53 53 55 66 61 57 79 84 90 96 84 89 88 91 72 98 96 91 88 90 96 86 95 98 82 75 68 70 67 51 54 74 66 66
19 23 32 37 39 46 57 58 60 56 50 49 62 69 64 65 71 83 92 85 88 90 90 96 97 99 100 94 97 97 100 100 99 86 82 72 70 65 54 57 63 55 54
24 26 26 28 36 44 50 53 53 51 52 56 69 75 76 70 80 80 84 85 89 97 93 90 97 95 90 92 97 91 99 93 98 95 87 77 73 67 55 56 61 59 48
40 41 44 43 40 43 51 54 62 61 59 55 54 50 62 76 76 83 82 91 90 96 100 91 93 91 88 81 90 89 89 88 94 96 99 88 74 70 69 67 60 54 49
41 39 38 34 28 26 40 75 78 72 66 60 60 61 60 71 69 78 86 89 90 90 93 90 90 99 94 76 78 88 89 81 82 82 96 94 81 78 72 71 68 75 81
47 40 34 24 19 21 58 71 71 66 77 77 76 75 73 77 79 75 77 84 90 89 87 90 92 95 94 92 84 92 78 88 80 78 79 86 82 81 77 73 78 80 73

GFSSE_850_rhum_135.txt.gz
RH
23 21 22 29 28 33 40 40 40 45 51 58 58 56 54 52 45 47 52 58 63 63 66 67 68 78 81 69 72 79 80 75 86 93 82 76 73 70 59 72 75 76 79
14 15 17 23 24 27 33 37 42 49 55 60 60 58 56 54 47 48 48 54 59 63 68 68 70 75 77 70 69 68 59 55 71 83 78 74 74 72 71 77 77 78 78
15 16 16 16 15 16 17 26 37 47 55 60 62 60 57 56 48 47 48 55 58 62 66 69 69 71 66 58 58 66 67 65 62 68 73 71 73 75 75 76 77 79 79
14 14 12 13 12 14 15 21 32 45 55 60 62 60 58 59 51 48 49 54 57 61 64 69 69 69 63 57 56 59 70 72 73 68 61 70 70 75 78 79 80 77 80
11 9 10 12 12 12 15 21 28 40 52 58 60 58 60 62 55 50 52 58 62 65 67 68 63 64 60 55 58 66 75 74 72 75 75 71 74 79 76 72 70 71 72
9 8 9 10 11 10 13 19 26 37 45 52 53 54 60 64 59 53 54 53 57 60 68 63 66 68 61 62 68 70 76 78 76 78 80 77 67 59 56 61 64 66 74
9 9 9 10 10 9 10 15 22 32 39 43 45 50 61 67 62 57 47 44 46 56 67 62 66 71 66 71 76 77 75 80 76 66 80 75 62 57 57 65 71 80 86
9 10 10 10 10 10 11 13 22 30 35 36 39 50 62 68 65 58 48 43 44 48 50 64 70 74 65 73 71 80 81 82 82 63 62 64 65 62 65 73 81 85 89
11 11 11 10 11 12 13 13 18 28 34 36 40 49 60 67 68 60 51 49 46 43 47 59 71 73 60 68 76 73 87 76 74 75 66 66 72 72 66 73 78 87 84
12 12 12 12 13 13 14 15 17 23 31 37 38 43 56 64 69 67 59 56 56 49 46 48 74 62 62 62 68 77 85 71 70 71 66 72 83 82 74 66 64 75 83
14 14 14 15 16 16 16 17 21 24 26 35 39 40 51 59 67 70 68 60 62 51 48 50 69 54 48 54 62 71 73 75 72 79 74 79 80 87 88 84 71 69 76
15 15 16 16 17 18 18 19 21 25 29 30 35 36 42 51 60 64 71 70 70 57 51 57 61 54 63 64 62 54 44 56 74 81 75 82 80 82 87 92 76 71 74
22 19 16 16 17 18 20 21 22 26 28 31 32 32 35 46 58 60 68 72 76 64 54 56 57 56 59 61 63 63 60 62 72 79 83 79 80 90 99 90 93 73 68
26 25 28 29 25 23 19 21 22 25 27 29 33 34 36 41 49 58 65 68 77 74 60 55 53 51 58 62 62 61 71 82 69 75 85 84 79 87 99 97 88 89 71
36 30 29 31 35 35 31 21 22 24 27 29 33 37 41 42 44 53 63 70 76 80 72 61 57 56 58 62 64 68 74 79 71 73 78 86 78 85 94 94 92 98 76
41 37 34 34 37 40 42 36 24 23 24 28 30 34 39 42 45 52 60 66 73 78 80 72 65 64 64 64 64 73 74 73 74 69 75 86 76 83 95 97 97 99 88
14 33 39 36 40 42 43 40 35 27 26 27 28 34 38 42 44 49 60 65 70 72 82 83 74 72 72 68 67 66 67 75 82 73 79 86 74 72 80 95 93 100 99
14 14 37 37 37 40 44 42 38 36 36 34 33 38 39 43 50 54 56 64 68 72 81 87 86 79 80 72 74 69 74 75 81 78 80 84 74 71 70 81 96 99 100
12 15 23 37 36 32 38 44 50 48 54 55 52 51 51 50 53 58 60 68 67 76 82 85 94 88 86 78 80 81 86 85 87 82 88 83 76 71 67 68 90 100 98
11 14 17 21 22 28 40 50 56 63 70 69 71 70 71 68 64 66 70 77 76 84 87 91 92 99 96 86 84 88 93 98 98 90 91 87 76 70 68 62 85 99 94
13 14 16 18 17 20 30 48 52 56 64 58 56 54 66 72 75 84 80 85 82 81 81 79 90 99 97 95 92 100 100 100 99 92 91 90 76 73 72 66 69 83 88
19 20 15 18 18 20 27 42 47 51 54 52 49 52 60 65 66 81 80 81 86 91 88 84 83 98 100 99 98 98 99 100 99 99 88 92 80 78 78 69 67 70 61
29 33 22 21 23 36 50 50 60 60 60 57 54 54 60 75 71 76 79 82 82 84 80 69 83 82 93 96 99 93 99 98 89 87 94 96 86 84 80 71 65 65 55
46 48 49 54 58 58 65 66 63 55 49 45 47 49 50 58 70 72 77 80 80 82 83 72 84 85 84 85 100 100 92 83 99 100 91 96 92 89 82 74 60 58 58
47 51 51 51 48 50 46 41 43 56 62 60 59 58 60 64 68 75 79 80 85 88 91 86 85 93 90 81 86 84 99 95 90 86 98 99 98 90 83 77 59 52 52
46 45 43 39 39 42 49 47 37 58 73 79 76 70 69 72 71 75 73 70 76 82 87 88 92 94 88 83 77 80 76 90 90 86 82 85 86 96 90 77 73 69 50

GFSSE_850_rhum_141.txt.gz
RH
26 35 50 54 53 51 50 46 38 42 45 51 51 52 54 53 48 46 55 60 57 62 66 68 70 67 66 67 70 75 75 80 78 72 70 70 70 75 80 67 66 72 78
21 29 44 49 47 47 48 47 40 40 42 50 51 51 53 50 46 48 57 58 60 63 66 67 72 76 68 66 67 72 76 68 72 66 63 62 60 68 85 74 74 78 82
18 19 32 39 39 44 48 49 43 43 46 51 54 54 53 50 47 50 54 56 62 63 66 70 73 75 68 66 71 78 68 65 61 66 68 62 63 69 77 79 83 84 86
15 17 22 27 27 35 42 48 43 45 48 51 54 54 54 50 49 49 52 59 62 64 68 72 71 74 68 65 62 56 54 55 53 67 79 77 64 73 80 84 83 82 79
16 12 15 18 20 22 28 41 41 43 47 51 53 55 54 52 48 49 54 58 60 63 67 69 72 72 65 58 56 57 61 65 64 66 67 69 69 75 79 85 84 82 74
11 13 15 12 10 12 19 27 37 40 43 49 51 53 52 55 49 51 56 58 58 63 69 68 68 66 62 57 57 61 63 63 71 71 72 75 79 85 83 83 81 77 71
12 15 15 13 11 13 17 23 31 35 38 43 44 50 50 57 51 52 58 53 48 58 68 65 63 62 59 57 57 62 67 70 78 77 79 75 81 78 70 74 75 75 82
14 15 13 14 14 17 20 22 27 32 34 36 40 46 50 59 53 54 47 44 44 56 61 60 61 64 61 60 61 63 70 74 76 80 77 72 71 65 66 69 76 84 87
18 13 12 13 16 18 22 27 30 32 32 33 37 40 46 60 57 54 44 43 45 50 54 54 62 67 65 60 58 68 72 71 63 76 72 71 69 70 76 70 82 86 86
20 17 13 13 14 19 23 28 34 36 36 37 38 38 45 60 60 56 46 44 46 47 49 51 64 70 68 60 56 66 75 73 72 66 65 66 73 77 76 84 86 82 75
21 20 20 18 17 19 23 28 34 39 42 43 43 44 53 63 63 58 50 48 48 48 49 51 61 72 70 58 63 67 68 71 75 75 73 73 77 81 82 85 83 81 78
20 21 23 20 19 22 24 27 35 41 47 48 46 48 57 62 64 63 53 52 53 53 50 52 61 74 68 64 66 69 73 76 75 77 72 77 76 76 78 82 82 81 87
20 20 22 19 20 21 26 30 29 34 41 44 46 49 53 60 66 67 62 56 57 59 53 53 65 76 67 61 61 66 67 76 62 68 85 76 77 79 76 72 81 84 83
22 21 22 20 20 22 26 30 29 25 26 26 32 41 47 51 61 65 69 67 60 64 60 54 58 67 64 58 62 64 60 71 59 59 74 82 81 78 76 76 84 82 84
24 20 23 25 22 20 24 28 29 26 22 22 23 27 32 40 51 58 65 71 69 65 69 57 57 65 60 63 64 68 63 69 76 71 71 73 88 79 79 82 84 79 83
37 30 22 21 24 26 24 26 27 31 28 24 25 26 27 28 38 46 54 64 74 72 75 63 58 62 61 64 63 66 66 69 75 78 77 71 89 84 79 82 83 84 83
22 41 44 38 31 24 22 25 26 24 24 24 23 26 29 32 33 40 45 52 64 74 81 76 63 63 64 64 61 65 68 72 76 72 69 76 87 88 79 84 86 84 86
15 16 18 20 27 36 42 34 25 25 26 27 26 26 29 32 36 41 53 56 53 68 81 87 75 66 65 61 62 66 68 69 76 73 67 73 76 82 82 79 87 83 86
13 12 13 14 14 14 19 33 46 38 32 31 31 29 31 40 40 40 46 58 73 69 73 86 88 82 71 66 67 71 73 72 74 71 72 73 81 80 85 77 81 80 87
12 13 11 12 12 12 12 13 33 54 49 43 42 38 34 38 40 41 40 44 48 74 75 78 86 90 87 78 74 79 80 79 76 75 76 80 77 80 91 83 79 85 90
14 13 12 11 11 11 12 13 16 18 44 52 52 53 49 39 40 43 42 45 50 61 66 72 85 86 92 96 86 91 93 87 84 84 85 87 88 86 87 86 77 95 90
14 12 12 13 12 13 13 12 15 16 28 60 61 62 60 50 49 56 58 59 59 76 78 80 82 88 100 99 92 94 100 95 93 90 88 92 92 95 96 90 78 79 96
15 15 13 11 14 15 14 20 39 76 98 78 65 59 55 61 72 75 73 81 81 76 86 93 80 82 93 98 98 88 99 98 89 85 80 92 98 96 95 95 80 78 78
19 20 20 16 17 19 24 50 78 94 100 97 70 50 50 46 52 55 77 80 84 67 90 95 91 88 82 88 93 98 90 79 86 87 78 86 94 96 93 92 83 78 77
23 22 20 21 28 35 41 75 95 99 100 98 87 84 55 48 45 45 67 83 65 71 68 92 99 99 99 98 69 80 98 95 80 76 93 84 91 89 92 90 84 79 77
39 34 42 68 59 96 98 98 99 96 90 61 55 62 95 61 55 62 45 72 69 74 92 89 96 99 99 100 94 99 80 94 95 90 87 84 74 75 82 82 82 82 80

GFSSE_850_rhum_147.txt.gz
RH
28 33 19 26 32 39 43 43 42 44 48 59 60 64 64 62 64 58 56 55 54 59 64 68 68 69 70 67 67 70 71 73 75 70 63 61 62 62 60 82 85 75 89
34 35 18 30 35 38 43 41 43 46 50 56 54 62 60 60 60 57 56 55 56 60 64 66 66 67 67 68 71 73 78 79 73 72 62 60 59 68 68 73 81 70 91
41 34 20 29 34 36 40 41 43 50 52 53 53 59 59 58 53 55 58 54 56 59 63 66 71 71 70 71 70 77 79 72 68 59 64 95 94 72 72 76 78 85 90
51 35 20 26 34 34 37 40 44 52 54 54 53 57 56 54 51 52 52 53 57 59 61 64 70 69 68 68 74 74 71 65 60 58 83 86 94 69 72 71 80 94 97
56 58 32 30 32 33 38 40 44 50 54 55 56 58 54 51 50 50 48 52 55 59 62 66 69 72 69 67 67 62 60 58 63 77 84 84 92 82 78 76 91 98 88
56 66 42 36 33 33 38 42 43 44 51 55 57 56 54 51 50 48 48 50 54 56 61 65 69 71 67 66 62 60 60 59 72 96 98 87 94 79 83 80 77 88 78
53 63 58 38 36 36 42 44 44 42 40 50 56 57 55 52 50 48 49 51 49 52 59 64 68 70 67 63 60 60 62 61 87 91 71 84 82 82 89 90 84 78 66
57 69 48 30 31 35 40 44 45 44 44 51 54 57 56 55 52 49 51 51 46 50 58 61 62 65 62 59 58 62 60 57 76 75 84 78 84 81 73 59 77 70 75
69 78 77 24 26 30 41 44 46 45 46 54 58 58 56 56 54 52 55 52 46 51 55 54 58 62 61 58 60 56 61 64 74 67 72 93 80 77 77 75 65 74 72
78 82 91 29 24 27 37 41 45 45 50 57 61 61 61 61 58 53 55 48 47 53 55 53 58 64 63 62 56 61 60 60 82 84 77 88 74 71 72 75 68 78 72
81 89 74 76 35 24 32 34 43 47 52 58 62 64 64 66 64 59 57 48 47 51 53 52 59 66 67 60 59 61 61 76 76 79 76 66 59 65 74 70 78 81 75
59 82 90 82 80 26 46 70 45 51 54 59 65 66 67 93 95 92 83 52 50 51 52 52 59 67 71 75 62 60 62 81 74 76 76 79 62 74 79 77 82 79 74
36 62 77 91 63 25 24 51 52 90 73 71 86 95 82 90 90 93 96 69 53 54 54 53 56 66 71 79 78 82 81 80 72 73 78 69 72 76 92 87 78 84 80
28 49 64 81 97 42 47 25 22 78 87 91 92 92 94 88 83 84 83 97 71 74 90 80 94 95 89 78 79 77 78 72 77 75 91 57 75 78 81 86 84 85 84
22 42 57 72 86 88 39 57 39 60 82 83 86 89 91 89 92 93 80 86 85 84 86 89 84 90 85 82 75 79 79 76 81 94 56 57 66 81 81 74 88 79 79
19 22 43 64 78 91 73 68 59 69 81 61 88 89 87 96 92 91 83 80 78 76 79 81 81 78 81 84 80 79 80 80 80 89 73 62 66 73 84 75 79 78 80
18 21 27 44 67 83 89 88 84 80 78 79 71 88 80 57 92 91 86 79 75 76 77 81 83 80 78 82 84 83 82 79 85 93 84 71 73 77 83 81 79 78 81
27 29 27 28 52 75 83 85 82 76 77 77 66 76 73 34 64 92 91 82 76 80 81 82 80 79 76 75 75 81 84 80 82 88 99 98 69 74 81 85 76 75 82
36 40 40 38 37 55 82 84 80 78 77 74 76 78 85 58 38 82 88 84 81 83 83 84 83 81 82 80 71 74 81 78 81 83 88 93 84 64 70 81 79 77 80
42 45 45 45 42 40 50 73 82 83 86 75 73 76 79 85 53 37 67 88 90 94 89 89 86 84 87 87 70 72 72 81 84 85 87 89 89 78 72 74 79 82 81
62 63 65 53 48 42 36 40 61 73 71 77 78 75 75 83 84 66 67 89 94 94 95 95 90 91 92 93 81 76 83 81 88 86 86 86 87 94 71 74 78 87 84
72 79 70 73 64 50 42 32 32 40 56 62 68 77 82 82 92 68 71 85 90 94 98 96 96 94 97 97 94 88 98 92 87 93 91 92 94 94 100 81 90 87 93
79 87 71 53 54 78 55 44 35 34 42 58 66 72 79 83 91 88 94 92 89 92 93 90 93 98 92 93 99 96 99 95 94 96 93 92 95 95 97 98 83 93 90
86 97 86 87 80 74 82 62 47 43 38 48 64 70 77 87 89 92 90 92 90 93 95 91 91 93 98 98 100 98 89 84 82 82 96 93 96 97 98 98 98 98 96
96 100 90 98 100 97 95 95 93 84 55 40 52 68 80 89 88 95 95 94 95 97 98 94 84 66 53 42 94 96 99 92 90 81 81 98 96 99 96 98 98 97 94
92 81 83 86 98 99 98 99 99 88 94 67 54 57 86 92 88 92 92 93 95 99 92 94 85 61 59 52 82 98 98 100 99 94 77 80 89 83 95 99 99 99 95